#timestamp,LO_Frequency,Hit,StdDev 
1581660015.7,286047001.9,N
1581660035.6,286047001.4,N
1581660055.4,286047001.7,N
1581660075.2,286047001.9,N
1581660095.1,286047004.0,N
1581660096.0,286047004.0,N
1581660115.8,286047001.4,N
1581660135.7,286047001.8,N
1581660155.5,286047000.0,N
1581660175.3,286046999.8,N
1581660195.2,286046998.9,N
1581660215.0,286046997.0,N
1581660215.9,286046997.0,N
1581660235.7,286046996.7,N
1581660255.6,286047000.9,N
1581660275.4,286046999.9,N
1581660295.3,286047001.9,N
1581660315.1,286047001.6,N
1581660316.0,286047001.6,N
1581660335.8,286047002.8,N
1581660355.7,286047002.1,N
1581660375.5,286047001.7,N
1581660395.4,286047003.8,N
1581660415.2,286047001.5,N
1581660435.0,286046999.7,N
1581660435.9,286046999.7,N
1581660455.8,286047002.7,N
1581660475.6,286047001.1,N
1581660495.4,286047002.8,N
1581660515.3,286047001.1,N
1581660535.1,286046999.8,N
1581660555.9,286047000.9,N
1581660575.7,286047002.5,N
1581660595.5,286047001.9,N
1581660615.4,286047000.2,N
1581660635.2,286047001.6,N
1581660655.0,286047001.5,N
1581660656.0,286047001.5,N
1581660675.8,286047004.3,N
1581660695.6,286047004.2,N
1581660715.5,286047001.8,N
1581660735.3,286047002.8,N
1581660755.1,286047000.5,N
1581660775.9,286046998.7,N
1581660795.7,286046996.5,N
1581660815.6,286046997.0,N
1581660835.4,286046998.3,N
1581660855.2,286046998.2,N
1581660875.1,286046999.8,N
1581660876.0,286046999.8,N
1581660895.8,286047001.6,N
1581660915.6,286046999.7,N
1581660935.5,286047001.9,N
1581660985.4,286047002.5,E
1581660995.3,286047000.2,N
1581661015.1,286046998.2,P
1581661035.9,286046997.4,N
1581661055.7,286046995.1,Y
1581661075.5,286046996.7,P
1581661095.4,286046995.5,P
1581661115.2,286046995.8,P
1581661135.0,286046996.4,Y
1581661136.0,286046996.4,P
1581661155.8,286046998.6,P
1581661175.6,286047000.6,N
1581661195.5,286047000.6,N
1581661215.3,286047000.6,N
1581661235.1,286047003.2,N
1581661255.9,286047005.8,N
1581661275.7,286047002.9,N
1581661295.6,286047001.3,N
1581661315.4,286047001.4,N
1581661335.2,286047002.1,N
1581661355.1,286047000.9,N
1581661356.0,286047000.9,N
1581661375.8,286047002.2,N
1581661395.6,286047002.0,N
1581661415.5,286047003.9,N
1581661435.3,286047002.0,N
1581661455.2,286047001.8,N
1581661475.9,286047001.7,N
1581661495.7,286047001.4,N
1581661515.6,286047004.2,N
1581661535.4,286047006.8,Y
1581661555.2,286047006.9,P
1581661575.1,286047004.5,N
1581661576.0,286047004.5,N
1581661595.8,286047004.5,N
1581661615.7,286047007.6,Y
1581661635.5,286047002.3,P
1581661655.3,286047001.9,N
1581661675.2,286046999.7,N
1581661695.0,286047000.8,N
1581661695.9,286047000.8,N
1581661715.8,286046998.8,N
1581661735.6,286047002.2,N
1581661755.4,286047004.0,N
1581661775.3,286047004.7,N
1581661795.1,286047003.9,N
1581661815.9,286047001.3,N
1581661835.7,286047002.9,N
1581661855.5,286047001.8,N
1581661875.4,286047000.1,N
1581661895.2,286047000.5,N
1581661915.0,286046999.9,N
1581661915.9,286046999.9,N
1581661935.8,286047000.0,N
1581661955.6,286046998.2,N
1581661975.5,286046998.5,N
1581661995.3,286046998.2,N
1581662015.1,286047001.0,N
1581662035.9,286047000.0,N
1581662055.7,286047002.6,N
1581662075.5,286047002.0,N
1581662095.4,286047004.7,N
1581662115.2,286047010.3,Y
1581662135.1,286047010.0,P
1581662136.0,286047010.0,N
1581662155.8,286047011.3,N
1581662175.6,286047010.2,N
1581662195.5,286047007.7,N
1581662215.3,286047007.1,N
1581662235.2,286047005.6,N
1581662255.9,286047003.7,N
1581662275.7,286047005.6,N
1581662295.6,286047007.5,N
1581662315.4,286047006.6,N
1581662335.3,286047008.3,N
1581662355.1,286047010.5,Y
1581662356.0,286047010.5,P
1581662375.8,286047004.8,N
1581662395.7,286047006.7,N
1581662415.5,286047008.4,Y
1581662435.4,286047000.9,P
1581662455.2,286047002.2,N
1581662475.0,286047001.2,N
1581662475.9,286047001.2,N
1581662495.8,286046994.9,N
1581662515.6,286046993.9,N
1581662535.4,286046992.1,N
1581662555.3,286046992.0,N
1581662575.1,286046991.8,N
1581662595.9,286046992.0,N
1581662615.7,286046992.8,N
1581662635.5,286046994.6,N
1581662655.4,286046994.2,N
1581662675.2,286046995.2,N
1581662695.1,286046999.3,N
1581662696.0,286046999.3,N
1581662715.8,286046999.0,N
1581662735.6,286047000.9,N
1581662755.5,286047002.6,N
1581662775.3,286047002.0,N
1581662795.1,286046998.1,N
1581662815.9,286046997.8,N
1581662835.7,286046993.4,N
1581662855.6,286046993.0,N
1581662875.4,286046990.5,N
1581662895.2,286046988.5,N
1581662915.1,286046990.8,N
1581662916.0,286046990.8,N
1581662935.8,286046990.3,N
1581662955.6,286046993.6,N
1581662975.5,286046993.6,N
1581662995.3,286046996.2,N
1581663015.2,286046996.7,N
1581663035.9,286046998.4,N
1581663055.7,286046999.9,N
1581663075.6,286047003.8,N
1581663095.4,286046999.7,N
1581663115.3,286046997.0,N
1581663135.1,286046996.2,N
1581663136.0,286046996.2,N
1581663155.8,286046992.4,N
1581663175.7,286046990.8,N
1581663195.5,286046991.1,N
1581663215.4,286046992.3,N
1581663235.2,286046995.2,N
1581663255.0,286046999.2,N
1581663255.9,286046999.2,N
1581663275.8,286046998.7,N
1581663295.6,286046999.6,N
1581663315.4,286046998.7,N
1581663335.3,286046999.2,N
1581663355.1,286046998.6,N
1581663375.9,286047001.1,N
1581663395.7,286046995.8,N
1581663415.5,286046994.8,N
1581663435.4,286046990.6,N
1581663455.2,286046989.3,N
1581663475.1,286046986.0,Y
1581663476.0,286046986.0,P
1581663495.8,286046990.8,N
1581663515.6,286046992.2,N
1581663535.5,286046993.6,N
1581663555.3,286046993.8,N
1581663575.1,286046993.9,N
1581663595.9,286046998.0,N
